User: anonymous   Login
Location: Fort Wayne
(41.1310°N, 85.1290°W)
Time: 05:52:02
(UTC-04:00)
Language:

Helios 1B - Orbit

View from above orbital plane
View from above orbital plane
View from above satellite
View from above satellite

Ground track
Ground track

The orbit data is extracted from the following two-line orbital elements,

1 25977U 99064A   16239.35255722  .00000202  00000-0  32374-4 0  9997
2 25977  98.1382 339.7700 0002233 124.7837 235.3585 14.82103031900333
Epoch (UTC): 26 August 2016 08:27:40
Eccentricity: 0.0002233
inclination: 98.1382°
perigee height: 621 km
apogee height: 624 km
right ascension of ascending node: 339.7700°
argument of perigee: 124.7837°
revolutions per day: 14.82103031
mean anomaly at epoch: 235.3585°
orbit number at epoch: 90033

The dashed part of the orbit path shows where the satellite is in the earth's shadow,  

DLR